Time,TemperatureF,DewpointF,PressureIn,WindDirection,WindDirectionDegrees,WindSpeedMPH,WindSpeedGustMPH,Humidity,HourlyPrecipIn,Conditions,Clouds,dailyrainin,SoftwareType,DateUTC
2013-02-20 00:01:00,35.9,33.0,29.88,North,9,0.0,0.0,89,0.00,,,0.00,LWC V1.00 B64,2013-02-20 08:01:00,
2013-02-20 00:06:00,35.7,33.1,29.88,North,9,0.0,0.0,90,0.00,,,0.00,LWC V1.00 B64,2013-02-20 08:06:00,
2013-02-20 00:11:00,35.6,33.0,29.88,North,9,0.0,2.0,90,0.00,,,0.00,LWC V1.00 B64,2013-02-20 08:11:00,
2013-02-20 00:16:00,35.6,33.0,29.88,North,9,0.0,0.0,90,0.00,,,0.00,LWC V1.00 B64,2013-02-20 08:16:00,
2013-02-20 00:21:00,35.2,32.6,29.88,North,9,0.0,0.0,90,0.00,,,0.00,LWC V1.00 B64,2013-02-20 08:21:00,
2013-02-20 00:26:00,34.9,32.3,29.89,North,9,0.0,0.0,90,0.00,,,0.00,LWC V1.00 B64,2013-02-20 08:26:00,
2013-02-20 00:31:00,34.6,32.0,29.88,North,9,0.0,0.0,90,0.00,,,0.00,LWC V1.00 B64,2013-02-20 08:31:00,
2013-02-20 00:36:00,34.3,32.0,29.88,North,9,0.0,0.0,91,0.00,,,0.00,LWC V1.00 B64,2013-02-20 08:36:00,
2013-02-20 00:41:00,34.1,31.8,29.88,North,9,0.0,0.0,91,0.00,,,0.00,LWC V1.00 B64,2013-02-20 08:41:00,
2013-02-20 00:46:00,34.0,31.7,29.88,North,9,0.0,0.0,91,0.00,,,0.00,LWC V1.00 B64,2013-02-20 08:46:00,
2013-02-20 00:51:00,33.9,31.6,29.89,North,9,0.0,1.0,91,0.00,,,0.00,LWC V1.00 B64,2013-02-20 08:51:00,
2013-02-20 00:56:00,34.0,31.9,29.89,North,9,0.0,0.0,92,0.00,,,0.00,LWC V1.00 B64,2013-02-20 08:56:00,
2013-02-20 01:01:00,33.9,31.8,29.89,North,9,0.0,0.0,92,0.00,,,0.00,LWC V1.00 B64,2013-02-20 09:01:00,
2013-02-20 01:06:00,33.9,31.8,29.90,North,9,0.0,0.0,92,0.00,,,0.00,LWC V1.00 B64,2013-02-20 09:06:00,
2013-02-20 01:11:00,33.8,31.7,29.89,North,9,0.0,0.0,92,0.00,,,0.00,LWC V1.00 B64,2013-02-20 09:11:00,
2013-02-20 01:16:00,33.6,31.5,29.90,North,9,0.0,0.0,92,0.00,,,0.00,LWC V1.00 B64,2013-02-20 09:16:00,
2013-02-20 01:21:00,33.4,31.3,29.89,North,9,0.0,0.0,92,0.00,,,0.00,LWC V1.00 B64,2013-02-20 09:21:00,
2013-02-20 01:26:00,33.3,31.2,29.89,North,9,0.0,0.0,92,0.00,,,0.00,LWC V1.00 B64,2013-02-20 09:26:00,
2013-02-20 01:31:00,33.0,30.9,29.90,North,9,0.0,0.0,92,0.00,,,0.00,LWC V1.00 B64,2013-02-20 09:31:00,
2013-02-20 01:36:00,32.8,30.7,29.90,North,9,0.0,1.0,92,0.00,,,0.00,LWC V1.00 B64,2013-02-20 09:36:00,
2013-02-20 01:41:00,32.7,30.6,29.90,North,9,0.0,0.0,92,0.00,,,0.00,LWC V1.00 B64,2013-02-20 09:41:00,
2013-02-20 01:46:00,32.8,31.0,29.90,North,9,0.0,0.0,93,0.00,,,0.00,LWC V1.00 B64,2013-02-20 09:46:00,
2013-02-20 01:51:00,32.7,30.9,29.90,North,9,0.0,1.0,93,0.00,,,0.00,LWC V1.00 B64,2013-02-20 09:51:00,
2013-02-20 01:56:00,32.5,30.7,29.91,North,9,0.0,0.0,93,0.00,,,0.00,LWC V1.00 B64,2013-02-20 09:56:00,
2013-02-20 02:01:00,32.4,30.6,29.91,North,9,0.0,0.0,93,0.00,,,0.00,LWC V1.00 B64,2013-02-20 10:01:00,
2013-02-20 02:06:00,32.4,30.6,29.91,North,9,0.0,1.0,93,0.00,,,0.00,LWC V1.00 B64,2013-02-20 10:06:00,
2013-02-20 02:11:00,32.5,30.7,29.91,North,9,0.0,0.0,93,0.00,,,0.00,LWC V1.00 B64,2013-02-20 10:11:00,
2013-02-20 02:16:00,32.6,31.1,29.91,North,9,0.0,0.0,94,0.00,,,0.00,LWC V1.00 B64,2013-02-20 10:16:00,
2013-02-20 02:21:00,32.7,31.2,29.91,North,9,0.0,0.0,94,0.00,,,0.00,LWC V1.00 B64,2013-02-20 10:21:00,
2013-02-20 02:26:00,32.6,30.8,29.91,North,9,0.0,0.0,93,0.00,,,0.00,LWC V1.00 B64,2013-02-20 10:26:00,
2013-02-20 02:31:00,32.5,30.7,29.91,North,9,0.0,0.0,93,0.00,,,0.00,LWC V1.00 B64,2013-02-20 10:31:00,
2013-02-20 02:36:00,32.3,30.5,29.92,North,9,0.0,0.0,93,0.00,,,0.00,LWC V1.00 B64,2013-02-20 10:36:00,
2013-02-20 02:41:00,32.0,30.2,29.92,North,9,0.0,0.0,93,0.00,,,0.00,LWC V1.00 B64,2013-02-20 10:41:00,
2013-02-20 02:46:00,31.8,30.0,29.92,North,9,0.0,0.0,93,0.00,,,0.00,LWC V1.00 B64,2013-02-20 10:46:00,
2013-02-20 02:51:00,31.7,29.9,29.92,North,9,0.0,0.0,93,0.00,,,0.00,LWC V1.00 B64,2013-02-20 10:51:00,
2013-02-20 02:56:00,31.9,30.4,29.92,North,9,0.0,0.0,94,0.00,,,0.00,LWC V1.00 B64,2013-02-20 10:56:00,
2013-02-20 03:01:00,31.9,30.4,29.92,North,9,0.0,1.0,94,0.00,,,0.00,LWC V1.00 B64,2013-02-20 11:01:00,
2013-02-20 03:06:00,31.8,30.3,29.92,North,9,0.0,0.0,94,0.00,,,0.00,LWC V1.00 B64,2013-02-20 11:06:00,
2013-02-20 03:11:00,31.8,30.3,29.92,North,9,0.0,3.0,94,0.00,,,0.00,LWC V1.00 B64,2013-02-20 11:11:00,
2013-02-20 03:16:00,31.8,30.3,29.92,North,9,0.0,0.0,94,0.00,,,0.00,LWC V1.00 B64,2013-02-20 11:16:00,
2013-02-20 03:21:00,31.7,30.2,29.92,North,9,0.0,0.0,94,0.00,,,0.00,LWC V1.00 B64,2013-02-20 11:21:00,
2013-02-20 03:26:00,31.5,30.0,29.92,North,9,0.0,0.0,94,0.00,,,0.00,LWC V1.00 B64,2013-02-20 11:26:00,
2013-02-20 03:31:00,31.4,29.9,29.92,North,9,0.0,0.0,94,0.00,,,0.00,LWC V1.00 B64,2013-02-20 11:31:00,
2013-02-20 03:36:00,31.4,29.9,29.92,North,9,0.0,0.0,94,0.00,,,0.00,LWC V1.00 B64,2013-02-20 11:36:00,
2013-02-20 03:41:00,31.3,29.8,29.92,North,9,0.0,0.0,94,0.00,,,0.00,LWC V1.00 B64,2013-02-20 11:41:00,
2013-02-20 03:46:00,31.2,29.7,29.92,North,9,0.0,0.0,94,0.00,,,0.00,LWC V1.00 B64,2013-02-20 11:46:00,
2013-02-20 03:51:00,31.2,29.7,29.92,North,9,0.0,0.0,94,0.00,,,0.00,LWC V1.00 B64,2013-02-20 11:51:00,
2013-02-20 03:56:00,31.3,29.8,29.92,North,9,0.0,0.0,94,0.00,,,0.00,LWC V1.00 B64,2013-02-20 11:56:00,
2013-02-20 04:01:00,31.2,29.7,29.92,North,9,0.0,0.0,94,0.00,,,0.00,LWC V1.00 B64,2013-02-20 12:01:00,
2013-02-20 04:06:00,31.3,30.0,29.93,North,9,0.0,0.0,95,0.00,,,0.00,LWC V1.00 B64,2013-02-20 12:06:00,
2013-02-20 04:11:00,31.2,29.7,29.93,North,9,0.0,0.0,94,0.00,,,0.00,LWC V1.00 B64,2013-02-20 12:11:00,
2013-02-20 04:16:00,31.1,29.6,29.93,North,9,0.0,0.0,94,0.00,,,0.00,LWC V1.00 B64,2013-02-20 12:16:00,
2013-02-20 04:21:00,31.0,29.5,29.94,North,9,0.0,0.0,94,0.00,,,0.00,LWC V1.00 B64,2013-02-20 12:21:00,
2013-02-20 04:26:00,30.8,29.3,29.94,North,9,0.0,0.0,94,0.00,,,0.00,LWC V1.00 B64,2013-02-20 12:26:00,
2013-02-20 04:31:00,30.8,29.3,29.94,North,9,0.0,0.0,94,0.00,,,0.00,LWC V1.00 B64,2013-02-20 12:31:00,
2013-02-20 04:36:00,30.8,29.5,29.93,North,9,0.0,0.0,95,0.00,,,0.00,LWC V1.00 B64,2013-02-20 12:36:00,
2013-02-20 04:41:00,30.9,29.6,29.93,North,9,0.0,1.0,95,0.00,,,0.00,LWC V1.00 B64,2013-02-20 12:41:00,
2013-02-20 04:46:00,31.0,29.7,29.94,North,9,0.0,0.0,95,0.00,,,0.00,LWC V1.00 B64,2013-02-20 12:46:00,
2013-02-20 04:51:00,31.0,29.7,29.94,North,9,0.0,0.0,95,0.00,,,0.00,LWC V1.00 B64,2013-02-20 12:51:00,
2013-02-20 04:56:00,31.0,29.7,29.94,North,9,0.0,0.0,95,0.00,,,0.00,LWC V1.00 B64,2013-02-20 12:56:00,
2013-02-20 05:01:00,31.1,29.8,29.94,North,9,0.0,0.0,95,0.00,,,0.00,LWC V1.00 B64,2013-02-20 13:01:00,
2013-02-20 05:06:00,31.0,29.7,29.94,North,9,0.0,0.0,95,0.00,,,0.00,LWC V1.00 B64,2013-02-20 13:06:00,
2013-02-20 05:11:00,30.9,29.6,29.94,North,9,0.0,0.0,95,0.00,,,0.00,LWC V1.00 B64,2013-02-20 13:11:00,
2013-02-20 05:16:00,30.9,29.6,29.94,North,9,0.0,0.0,95,0.00,,,0.00,LWC V1.00 B64,2013-02-20 13:16:00,
2013-02-20 05:21:00,30.8,29.5,29.94,North,9,0.0,0.0,95,0.00,,,0.00,LWC V1.00 B64,2013-02-20 13:21:00,
2013-02-20 05:26:00,30.8,29.5,29.94,North,9,0.0,0.0,95,0.00,,,0.00,LWC V1.00 B64,2013-02-20 13:26:00,
2013-02-20 05:31:00,30.7,29.4,29.94,North,9,0.0,0.0,95,0.00,,,0.00,LWC V1.00 B64,2013-02-20 13:31:00,
2013-02-20 05:36:00,30.6,29.3,29.95,North,9,0.0,0.0,95,0.00,,,0.00,LWC V1.00 B64,2013-02-20 13:36:00,
2013-02-20 05:41:00,30.6,29.3,29.95,North,9,0.0,0.0,95,0.00,,,0.00,LWC V1.00 B64,2013-02-20 13:41:00,
2013-02-20 05:46:00,30.6,29.3,29.95,North,9,0.0,0.0,95,0.00,,,0.00,LWC V1.00 B64,2013-02-20 13:46:00,
2013-02-20 05:51:00,30.6,29.3,29.96,North,9,0.0,0.0,95,0.00,,,0.00,LWC V1.00 B64,2013-02-20 13:51:00,
2013-02-20 05:56:00,30.8,29.5,29.96,North,9,0.0,0.0,95,0.00,,,0.00,LWC V1.00 B64,2013-02-20 13:56:00,
2013-02-20 06:01:00,30.9,29.6,29.96,North,9,0.0,0.0,95,0.00,,,0.00,LWC V1.00 B64,2013-02-20 14:01:00,
2013-02-20 06:06:00,30.9,29.6,29.97,North,9,0.0,0.0,95,0.00,,,0.00,LWC V1.00 B64,2013-02-20 14:06:00,
2013-02-20 06:11:00,30.9,29.6,29.97,North,9,0.0,0.0,95,0.00,,,0.00,LWC V1.00 B64,2013-02-20 14:11:00,
2013-02-20 06:16:00,31.0,29.7,29.97,North,9,0.0,0.0,95,0.00,,,0.00,LWC V1.00 B64,2013-02-20 14:16:00,
2013-02-20 06:21:00,30.9,29.6,29.96,North,9,0.0,0.0,95,0.00,,,0.00,LWC V1.00 B64,2013-02-20 14:21:00,
2013-02-20 06:26:00,30.8,29.5,29.96,North,9,0.0,0.0,95,0.00,,,0.00,LWC V1.00 B64,2013-02-20 14:26:00,
2013-02-20 06:31:00,30.7,29.4,29.97,North,9,0.0,0.0,95,0.00,,,0.00,LWC V1.00 B64,2013-02-20 14:31:00,
2013-02-20 06:36:00,30.8,29.5,29.97,North,9,0.0,0.0,95,0.00,,,0.00,LWC V1.00 B64,2013-02-20 14:36:00,
2013-02-20 06:41:00,30.8,29.5,29.96,North,9,0.0,0.0,95,0.00,,,0.00,LWC V1.00 B64,2013-02-20 14:41:00,
2013-02-20 06:46:00,30.7,29.4,29.96,North,9,0.0,0.0,95,0.00,,,0.00,LWC V1.00 B64,2013-02-20 14:46:00,
2013-02-20 06:51:00,30.6,29.3,29.97,North,9,0.0,0.0,95,0.00,,,0.00,LWC V1.00 B64,2013-02-20 14:51:00,
2013-02-20 06:56:00,30.5,29.2,29.97,North,9,0.0,0.0,95,0.00,,,0.00,LWC V1.00 B64,2013-02-20 14:56:00,
2013-02-20 07:01:00,30.5,29.2,29.97,North,9,0.0,0.0,95,0.00,,,0.00,LWC V1.00 B64,2013-02-20 15:01:00,
2013-02-20 07:06:00,30.6,29.3,29.97,North,9,0.0,0.0,95,0.00,,,0.00,LWC V1.00 B64,2013-02-20 15:06:00,
2013-02-20 07:11:00,30.6,29.3,29.97,North,9,0.0,0.0,95,0.00,,,0.00,LWC V1.00 B64,2013-02-20 15:11:00,
2013-02-20 07:16:00,30.6,29.3,29.98,North,9,0.0,0.0,95,0.00,,,0.00,LWC V1.00 B64,2013-02-20 15:16:00,
2013-02-20 07:21:00,30.5,29.2,29.98,North,9,0.0,0.0,95,0.00,,,0.00,LWC V1.00 B64,2013-02-20 15:21:00,
2013-02-20 07:26:00,30.5,29.2,29.98,North,9,0.0,0.0,95,0.00,,,0.00,LWC V1.00 B64,2013-02-20 15:26:00,
2013-02-20 07:31:00,30.5,29.2,29.98,North,9,0.0,0.0,95,0.00,,,0.00,LWC V1.00 B64,2013-02-20 15:31:00,
2013-02-20 07:36:00,30.6,29.3,29.98,North,9,0.0,0.0,95,0.00,,,0.00,LWC V1.00 B64,2013-02-20 15:36:00,
2013-02-20 07:41:00,30.7,29.7,29.99,North,9,0.0,0.0,96,0.00,,,0.00,LWC V1.00 B64,2013-02-20 15:41:00,
2013-02-20 07:46:00,30.8,29.8,29.99,North,9,0.0,0.0,96,0.00,,,0.00,LWC V1.00 B64,2013-02-20 15:46:00,
2013-02-20 07:51:00,30.8,29.8,29.99,North,9,0.0,0.0,96,0.00,,,0.00,LWC V1.00 B64,2013-02-20 15:51:00,
2013-02-20 07:56:00,31.0,30.0,29.99,North,9,0.0,0.0,96,0.00,,,0.00,LWC V1.00 B64,2013-02-20 15:56:00,
2013-02-20 08:01:00,31.4,30.4,29.99,North,9,0.0,0.0,96,0.00,,,0.00,LWC V1.00 B64,2013-02-20 16:01:00,
2013-02-20 08:06:00,31.8,30.8,30.00,North,9,0.0,0.0,96,0.00,,,0.00,LWC V1.00 B64,2013-02-20 16:06:00,
2013-02-20 08:11:00,32.5,31.5,30.00,North,9,0.0,0.0,96,0.00,,,0.00,LWC V1.00 B64,2013-02-20 16:11:00,
2013-02-20 08:16:00,33.0,32.0,30.00,North,9,0.0,0.0,96,0.00,,,0.00,LWC V1.00 B64,2013-02-20 16:16:00,
2013-02-20 08:21:00,33.5,32.5,30.00,North,9,0.0,0.0,96,0.00,,,0.00,LWC V1.00 B64,2013-02-20 16:21:00,
2013-02-20 08:26:00,34.4,33.6,30.01,North,9,0.0,0.0,97,0.00,,,0.00,LWC V1.00 B64,2013-02-20 16:26:00,
2013-02-20 08:31:00,35.1,34.3,30.01,North,9,0.0,0.0,97,0.00,,,0.00,LWC V1.00 B64,2013-02-20 16:31:00,
2013-02-20 08:36:00,36.1,35.3,30.01,North,9,0.0,0.0,97,0.00,,,0.00,LWC V1.00 B64,2013-02-20 16:36:00,
2013-02-20 08:41:00,36.5,35.5,30.01,North,9,0.0,0.0,96,0.00,,,0.00,LWC V1.00 B64,2013-02-20 16:41:00,
2013-02-20 08:46:00,37.0,36.0,30.01,North,9,0.0,0.0,96,0.00,,,0.00,LWC V1.00 B64,2013-02-20 16:46:00,
2013-02-20 08:51:00,37.8,36.8,30.01,North,9,0.0,0.0,96,0.00,,,0.00,LWC V1.00 B64,2013-02-20 16:51:00,
2013-02-20 08:56:00,38.4,37.4,30.01,North,9,0.0,0.0,96,0.00,,,0.00,LWC V1.00 B64,2013-02-20 16:56:00,
2013-02-20 09:01:00,38.9,37.9,30.02,North,9,0.0,0.0,96,0.00,,,0.00,LWC V1.00 B64,2013-02-20 17:01:00,
2013-02-20 09:06:00,39.1,38.1,30.02,North,9,0.0,1.0,96,0.00,,,0.00,LWC V1.00 B64,2013-02-20 17:06:00,
2013-02-20 09:11:00,39.3,38.3,30.02,North,9,0.0,0.0,96,0.00,,,0.00,LWC V1.00 B64,2013-02-20 17:11:00,
2013-02-20 09:16:00,39.5,38.5,30.02,North,9,0.0,0.0,96,0.00,,,0.00,LWC V1.00 B64,2013-02-20 17:16:00,
2013-02-20 09:21:00,40.2,39.2,30.02,North,9,1.0,2.0,96,0.00,,,0.00,LWC V1.00 B64,2013-02-20 17:21:00,
2013-02-20 09:26:00,40.8,39.5,30.01,North,9,0.0,1.0,95,0.00,,,0.00,LWC V1.00 B64,2013-02-20 17:26:00,
2013-02-20 09:31:00,41.5,40.2,30.01,North,9,0.0,1.0,95,0.00,,,0.00,LWC V1.00 B64,2013-02-20 17:31:00,
2013-02-20 09:36:00,42.1,40.5,30.02,North,9,0.0,2.0,94,0.00,,,0.00,LWC V1.00 B64,2013-02-20 17:36:00,
2013-02-20 09:41:00,43.1,41.2,30.01,North,9,1.0,3.0,93,0.00,,,0.00,LWC V1.00 B64,2013-02-20 17:41:00,
2013-02-20 09:46:00,44.6,42.4,30.01,North,9,1.0,5.0,92,0.00,,,0.00,LWC V1.00 B64,2013-02-20 17:46:00,
2013-02-20 09:51:00,46.0,42.6,30.02,North,5,2.0,9.0,88,0.00,,,0.00,LWC V1.00 B64,2013-02-20 17:51:00,
2013-02-20 09:56:00,47.2,42.6,30.02,NNW,332,7.0,10.0,84,0.00,,,0.00,LWC V1.00 B64,2013-02-20 17:56:00,
2013-02-20 10:01:00,47.8,41.9,30.02,North,5,5.0,10.0,80,0.00,,,0.00,LWC V1.00 B64,2013-02-20 18:01:00,
2013-02-20 10:06:00,48.3,42.1,30.02,North,351,3.0,10.0,79,0.00,,,0.00,LWC V1.00 B64,2013-02-20 18:06:00,
2013-02-20 10:11:00,48.9,42.0,30.01,North,355,4.0,7.0,77,0.00,,,0.00,LWC V1.00 B64,2013-02-20 18:11:00,
2013-02-20 10:16:00,49.3,42.1,30.01,NNW,334,1.0,4.0,76,0.00,,,0.00,LWC V1.00 B64,2013-02-20 18:16:00,
2013-02-20 10:21:00,49.5,41.6,30.02,North,5,4.0,9.0,74,0.00,,,0.00,LWC V1.00 B64,2013-02-20 18:21:00,
2013-02-20 10:26:00,49.4,41.5,30.02,NNW,336,5.0,7.0,74,0.00,,,0.00,LWC V1.00 B64,2013-02-20 18:26:00,
2013-02-20 10:31:00,49.5,41.2,30.02,NNW,334,5.0,9.0,73,0.00,,,0.00,LWC V1.00 B64,2013-02-20 18:31:00,
2013-02-20 10:36:00,49.7,41.4,30.02,North,355,7.0,10.0,73,0.00,,,0.00,LWC V1.00 B64,2013-02-20 18:36:00,
2013-02-20 10:41:00,49.8,41.1,30.02,NNW,336,9.0,11.0,72,0.00,,,0.00,LWC V1.00 B64,2013-02-20 18:41:00,
2013-02-20 10:46:00,49.8,41.5,30.02,North,349,4.0,10.0,73,0.00,,,0.00,LWC V1.00 B64,2013-02-20 18:46:00,
2013-02-20 10:51:00,49.9,40.1,30.02,North,349,6.0,14.0,69,0.00,,,0.00,LWC V1.00 B64,2013-02-20 18:51:00,
2013-02-20 10:56:00,50.1,41.1,30.02,NNW,341,6.0,10.0,71,0.00,,,0.00,LWC V1.00 B64,2013-02-20 18:56:00,
2013-02-20 11:01:00,50.7,41.3,30.02,North,5,6.0,11.0,70,0.00,,,0.00,LWC V1.00 B64,2013-02-20 19:01:00,
2013-02-20 11:06:00,50.9,40.7,30.03,North,355,6.0,14.0,68,0.00,,,0.00,LWC V1.00 B64,2013-02-20 19:06:00,
2013-02-20 11:11:00,51.2,41.4,30.03,North,355,6.0,10.0,69,0.00,,,0.00,LWC V1.00 B64,2013-02-20 19:11:00,
2013-02-20 11:16:00,51.1,40.9,30.03,North,0,7.0,14.0,68,0.00,,,0.00,LWC V1.00 B64,2013-02-20 19:16:00,
2013-02-20 11:21:00,51.2,40.2,30.03,NNW,338,8.0,15.0,66,0.00,,,0.00,LWC V1.00 B64,2013-02-20 19:21:00,
2013-02-20 11:26:00,51.5,41.3,30.03,NNW,344,12.0,14.0,68,0.00,,,0.00,LWC V1.00 B64,2013-02-20 19:26:00,
2013-02-20 11:31:00,51.7,41.1,30.02,NNW,344,10.0,12.0,67,0.00,,,0.00,LWC V1.00 B64,2013-02-20 19:31:00,
2013-02-20 11:36:00,52.0,41.8,30.02,NNW,344,5.0,13.0,68,0.00,,,0.00,LWC V1.00 B64,2013-02-20 19:36:00,
2013-02-20 11:41:00,52.3,41.3,30.02,North,355,11.0,14.0,66,0.00,,,0.00,LWC V1.00 B64,2013-02-20 19:41:00,
2013-02-20 11:46:00,52.2,41.6,30.03,NNE,21,10.0,12.0,67,0.00,,,0.00,LWC V1.00 B64,2013-02-20 19:46:00,
2013-02-20 11:51:00,52.6,41.6,30.03,NNW,333,7.0,12.0,66,0.00,,,0.00,LWC V1.00 B64,2013-02-20 19:51:00,
2013-02-20 11:56:00,53.0,42.3,30.02,North,355,3.0,10.0,67,0.00,,,0.00,LWC V1.00 B64,2013-02-20 19:56:00,
2013-02-20 12:01:00,52.9,41.5,30.02,NNW,340,14.0,16.0,65,0.00,,,0.00,LWC V1.00 B64,2013-02-20 20:01:00,
2013-02-20 12:06:00,52.9,42.2,30.02,North,350,10.0,17.0,67,0.00,,,0.00,LWC V1.00 B64,2013-02-20 20:06:00,
2013-02-20 12:11:00,53.3,42.2,30.02,NNW,346,6.0,14.0,66,0.00,,,0.00,LWC V1.00 B64,2013-02-20 20:11:00,
2013-02-20 12:16:00,53.4,43.1,30.02,NNW,340,7.0,17.0,68,0.00,,,0.00,LWC V1.00 B64,2013-02-20 20:16:00,
2013-02-20 12:21:00,53.0,42.3,30.02,North,11,9.0,16.0,67,0.00,,,0.00,LWC V1.00 B64,2013-02-20 20:21:00,
2013-02-20 12:26:00,52.9,42.2,30.02,NW,321,16.0,19.0,67,0.00,,,0.00,LWC V1.00 B64,2013-02-20 20:26:00,
2013-02-20 12:31:00,53.0,42.3,30.02,NNW,340,13.0,15.0,67,0.00,,,0.00,LWC V1.00 B64,2013-02-20 20:31:00,
2013-02-20 12:36:00,53.4,43.5,30.02,NNW,346,9.0,12.0,69,0.00,,,0.00,LWC V1.00 B64,2013-02-20 20:36:00,
2013-02-20 12:41:00,54.0,42.9,30.01,North,10,7.0,11.0,66,0.00,,,0.00,LWC V1.00 B64,2013-02-20 20:41:00,
2013-02-20 12:46:00,54.1,43.4,30.02,NW,313,11.0,16.0,67,0.00,,,0.00,LWC V1.00 B64,2013-02-20 20:46:00,
2013-02-20 12:51:00,53.9,43.6,30.01,NNE,16,14.0,18.0,68,0.00,,,0.00,LWC V1.00 B64,2013-02-20 20:51:00,
2013-02-20 12:56:00,53.6,43.7,30.02,North,349,14.0,14.0,69,0.00,,,0.00,LWC V1.00 B64,2013-02-20 20:56:00,
2013-02-20 13:01:00,53.7,43.4,30.02,North,0,14.0,19.0,68,0.00,,,0.00,LWC V1.00 B64,2013-02-20 21:01:00,
2013-02-20 13:06:00,53.0,43.5,30.01,NNW,345,14.0,21.0,70,0.00,,,0.00,LWC V1.00 B64,2013-02-20 21:06:00,
2013-02-20 13:11:00,53.0,43.5,30.01,NNW,337,16.0,18.0,70,0.00,,,0.00,LWC V1.00 B64,2013-02-20 21:11:00,
2013-02-20 13:16:00,53.1,43.6,30.00,North,5,9.0,15.0,70,0.00,,,0.00,LWC V1.00 B64,2013-02-20 21:16:00,
2013-02-20 13:21:00,53.3,43.4,30.01,NNW,337,5.0,17.0,69,0.00,,,0.00,LWC V1.00 B64,2013-02-20 21:21:00,
2013-02-20 13:26:00,53.1,43.2,30.01,North,355,12.0,16.0,69,0.00,,,0.00,LWC V1.00 B64,2013-02-20 21:26:00,
2013-02-20 13:31:00,53.0,43.1,30.01,North,5,5.0,18.0,69,0.00,,,0.00,LWC V1.00 B64,2013-02-20 21:31:00,
2013-02-20 13:36:00,53.2,44.0,30.01,North,355,12.0,14.0,71,0.00,,,0.00,LWC V1.00 B64,2013-02-20 21:36:00,
2013-02-20 13:41:00,52.9,43.8,30.00,NNW,335,6.0,16.0,71,0.00,,,0.00,LWC V1.00 B64,2013-02-20 21:41:00,
2013-02-20 13:46:00,53.3,44.1,30.00,North,355,11.0,14.0,71,0.00,,,0.00,LWC V1.00 B64,2013-02-20 21:46:00,
2013-02-20 13:51:00,54.0,44.1,30.00,North,355,13.0,17.0,69,0.00,,,0.00,LWC V1.00 B64,2013-02-20 21:51:00,
2013-02-20 13:56:00,54.1,43.8,29.99,NW,324,13.0,17.0,68,0.00,,,0.00,LWC V1.00 B64,2013-02-20 21:56:00,
2013-02-20 14:01:00,54.0,44.1,29.99,WNW,298,4.0,14.0,69,0.00,,,0.00,LWC V1.00 B64,2013-02-20 22:01:00,
2013-02-20 14:06:00,54.0,45.2,29.99,NNW,333,6.0,16.0,72,0.00,,,0.00,LWC V1.00 B64,2013-02-20 22:06:00,
2013-02-20 14:11:00,54.4,45.2,29.99,North,0,13.0,15.0,71,0.00,,,0.00,LWC V1.00 B64,2013-02-20 22:11:00,
2013-02-20 14:16:00,54.5,45.3,29.99,NNW,345,7.0,11.0,71,0.00,,,0.00,LWC V1.00 B64,2013-02-20 22:16:00,
2013-02-20 14:21:00,54.4,44.4,29.99,NNW,341,4.0,14.0,69,0.00,,,0.00,LWC V1.00 B64,2013-02-20 22:21:00,
2013-02-20 14:26:00,54.2,44.6,30.00,North,351,9.0,11.0,70,0.00,,,0.00,LWC V1.00 B64,2013-02-20 22:26:00,
2013-02-20 14:31:00,54.3,45.1,29.99,North,0,6.0,14.0,71,0.00,,,0.00,LWC V1.00 B64,2013-02-20 22:31:00,
2013-02-20 14:36:00,54.5,44.5,29.99,NNE,26,11.0,17.0,69,0.00,,,0.00,LWC V1.00 B64,2013-02-20 22:36:00,
2013-02-20 14:41:00,54.5,44.9,29.99,NNW,331,3.0,9.0,70,0.00,,,0.00,LWC V1.00 B64,2013-02-20 22:41:00,
2013-02-20 14:47:00,54.7,45.5,30.00,North,9,4.0,14.0,71,0.00,,,0.00,LWC V1.00 B64,2013-02-20 22:47:00,
2013-02-20 14:52:00,54.6,45.8,30.00,NNW,327,4.0,6.0,72,0.00,,,0.00,LWC V1.00 B64,2013-02-20 22:52:00,
2013-02-20 14:57:00,54.5,45.3,30.00,NNE,32,7.0,15.0,71,0.00,,,0.00,LWC V1.00 B64,2013-02-20 22:57:00,
2013-02-20 15:02:00,54.5,45.7,30.00,North,5,10.0,10.0,72,0.00,,,0.00,LWC V1.00 B64,2013-02-20 23:02:00,
2013-02-20 15:07:00,54.2,45.0,30.00,North,350,8.0,15.0,71,0.00,,,0.00,LWC V1.00 B64,2013-02-20 23:07:00,
2013-02-20 15:12:00,53.6,44.8,30.00,North,350,12.0,15.0,72,0.00,,,0.00,LWC V1.00 B64,2013-02-20 23:12:00,
2013-02-20 15:17:00,53.9,45.1,30.00,North,355,6.0,13.0,72,0.00,,,0.00,LWC V1.00 B64,2013-02-20 23:17:00,
2013-02-20 15:22:00,53.4,45.0,30.00,North,350,10.0,14.0,73,0.00,,,0.00,LWC V1.00 B64,2013-02-20 23:22:00,
2013-02-20 15:27:00,53.0,44.9,30.00,North,0,3.0,13.0,74,0.00,,,0.00,LWC V1.00 B64,2013-02-20 23:27:00,
2013-02-20 15:32:00,53.0,44.6,30.00,North,355,15.0,19.0,73,0.00,,,0.00,LWC V1.00 B64,2013-02-20 23:32:00,
2013-02-20 15:37:00,52.7,44.6,30.00,North,355,12.0,14.0,74,0.00,,,0.00,LWC V1.00 B64,2013-02-20 23:37:00,
2013-02-20 15:42:00,52.7,44.6,30.00,NNW,335,11.0,15.0,74,0.00,,,0.00,LWC V1.00 B64,2013-02-20 23:42:00,
2013-02-20 15:47:00,52.4,44.4,30.00,NNE,13,12.0,14.0,74,0.00,,,0.00,LWC V1.00 B64,2013-02-20 23:47:00,
2013-02-20 15:52:00,52.4,44.7,30.00,NNW,344,5.0,17.0,75,0.00,,,0.00,LWC V1.00 B64,2013-02-20 23:52:00,
2013-02-20 15:57:00,52.1,44.4,30.00,NNE,15,13.0,14.0,75,0.00,,,0.00,LWC V1.00 B64,2013-02-20 23:57:00,
2013-02-20 16:02:00,51.9,44.2,30.00,North,0,13.0,15.0,75,0.00,,,0.00,LWC V1.00 B64,2013-02-21 00:02:00,
2013-02-20 16:07:00,52.0,44.7,30.01,NNW,344,6.0,17.0,76,0.00,,,0.00,LWC V1.00 B64,2013-02-21 00:07:00,
2013-02-20 16:12:00,51.8,44.5,30.01,North,355,14.0,18.0,76,0.00,,,0.00,LWC V1.00 B64,2013-02-21 00:12:00,
2013-02-20 16:17:00,51.4,44.4,30.01,North,11,10.0,21.0,77,0.00,,,0.00,LWC V1.00 B64,2013-02-21 00:17:00,
2013-02-20 16:22:00,51.2,44.6,30.01,North,5,11.0,16.0,78,0.00,,,0.00,LWC V1.00 B64,2013-02-21 00:22:00,
2013-02-20 16:27:00,51.3,44.7,30.01,North,0,7.0,16.0,78,0.00,,,0.00,LWC V1.00 B64,2013-02-21 00:27:00,
2013-02-20 16:32:00,51.2,44.6,30.01,NNW,348,4.0,15.0,78,0.00,,,0.00,LWC V1.00 B64,2013-02-21 00:32:00,
2013-02-20 16:37:00,51.0,44.4,30.01,NNW,348,14.0,14.0,78,0.00,,,0.00,LWC V1.00 B64,2013-02-21 00:37:00,
2013-02-20 16:42:00,50.8,44.2,30.01,NW,315,11.0,16.0,78,0.00,,,0.00,LWC V1.00 B64,2013-02-21 00:42:00,
2013-02-20 16:47:00,50.6,44.0,30.01,NNW,336,12.0,17.0,78,0.00,,,0.00,LWC V1.00 B64,2013-02-21 00:47:00,
2013-02-20 16:52:00,50.4,43.8,30.01,NNW,336,11.0,14.0,78,0.00,,,0.00,LWC V1.00 B64,2013-02-21 00:52:00,
2013-02-20 16:57:00,50.3,43.7,30.01,North,9,11.0,14.0,78,0.00,,,0.00,LWC V1.00 B64,2013-02-21 00:57:00,
2013-02-20 17:02:00,50.1,43.8,30.01,North,0,11.0,17.0,79,0.00,,,0.00,LWC V1.00 B64,2013-02-21 01:02:00,
2013-02-20 17:07:00,49.9,43.6,30.01,North,5,4.0,15.0,79,0.00,,,0.00,LWC V1.00 B64,2013-02-21 01:07:00,
2013-02-20 17:12:00,49.7,43.5,30.01,North,5,4.0,15.0,79,0.00,,,0.00,LWC V1.00 B64,2013-02-21 01:12:00,
2013-02-20 17:17:00,49.4,43.5,30.01,North,355,11.0,19.0,80,0.00,,,0.00,LWC V1.00 B64,2013-02-21 01:17:00,
2013-02-20 17:22:00,49.0,43.4,30.01,NNW,337,7.0,12.0,81,0.00,,,0.00,LWC V1.00 B64,2013-02-21 01:22:00,
2013-02-20 17:27:00,48.8,43.2,30.01,North,0,5.0,12.0,81,0.00,,,0.00,LWC V1.00 B64,2013-02-21 01:27:00,
2013-02-20 17:32:00,48.7,43.5,30.01,North,5,13.0,14.0,82,0.00,,,0.00,LWC V1.00 B64,2013-02-21 01:32:00,
2013-02-20 17:37:00,48.6,43.4,30.01,NNW,347,7.0,14.0,82,0.00,,,0.00,LWC V1.00 B64,2013-02-21 01:37:00,
2013-02-20 17:42:00,48.5,43.3,30.02,North,10,9.0,14.0,82,0.00,,,0.00,LWC V1.00 B64,2013-02-21 01:42:00,
2013-02-20 17:48:00,48.5,43.3,30.02,North,9,7.0,12.0,82,0.00,,,0.00,LWC V1.00 B64,2013-02-21 01:48:00,
2013-02-20 17:53:00,48.4,43.2,30.02,North,5,8.0,12.0,82,0.00,,,0.00,LWC V1.00 B64,2013-02-21 01:53:00,
2013-02-20 17:58:00,48.3,43.4,30.02,NNW,346,9.0,11.0,83,0.00,,,0.00,LWC V1.00 B64,2013-02-21 01:58:00,
2013-02-20 18:03:00,48.1,43.2,30.02,North,10,6.0,11.0,83,0.00,,,0.00,LWC V1.00 B64,2013-02-21 02:03:00,
2013-02-20 18:08:00,48.0,43.1,30.02,North,5,6.0,12.0,83,0.00,,,0.00,LWC V1.00 B64,2013-02-21 02:08:00,
2013-02-20 18:13:00,48.0,43.1,30.02,North,5,6.0,10.0,83,0.00,,,0.00,LWC V1.00 B64,2013-02-21 02:13:00,
2013-02-20 18:18:00,47.9,43.3,30.02,North,5,5.0,12.0,84,0.00,,,0.00,LWC V1.00 B64,2013-02-21 02:18:00,
2013-02-20 18:23:00,47.8,43.2,30.03,North,0,6.0,11.0,84,0.00,,,0.00,LWC V1.00 B64,2013-02-21 02:23:00,
2013-02-20 18:28:00,47.9,43.3,30.03,NW,325,6.0,12.0,84,0.00,,,0.00,LWC V1.00 B64,2013-02-21 02:28:00,
2013-02-20 18:33:00,47.8,43.2,30.03,North,0,11.0,13.0,84,0.00,,,0.00,LWC V1.00 B64,2013-02-21 02:33:00,
2013-02-20 18:38:00,47.9,43.3,30.03,North,5,11.0,12.0,84,0.00,,,0.00,LWC V1.00 B64,2013-02-21 02:38:00,
2013-02-20 18:43:00,47.9,43.3,30.03,NNW,348,5.0,14.0,84,0.00,,,0.00,LWC V1.00 B64,2013-02-21 02:43:00,
2013-02-20 18:48:00,47.7,43.1,30.03,North,355,6.0,12.0,84,0.00,,,0.00,LWC V1.00 B64,2013-02-21 02:48:00,
2013-02-20 18:53:00,47.7,43.4,30.03,North,0,10.0,11.0,85,0.00,,,0.00,LWC V1.00 B64,2013-02-21 02:53:00,
2013-02-20 18:58:00,47.7,43.4,30.03,North,355,9.0,11.0,85,0.00,,,0.00,LWC V1.00 B64,2013-02-21 02:58:00,
2013-02-20 19:03:00,47.6,43.3,30.03,North,9,5.0,12.0,85,0.00,,,0.00,LWC V1.00 B64,2013-02-21 03:03:00,
2013-02-20 19:08:00,47.6,43.3,30.03,North,5,7.0,10.0,85,0.00,,,0.00,LWC V1.00 B64,2013-02-21 03:08:00,
2013-02-20 19:13:00,47.6,43.3,30.04,North,355,4.0,10.0,85,0.00,,,0.00,LWC V1.00 B64,2013-02-21 03:13:00,
2013-02-20 19:18:00,47.5,43.2,30.04,NNW,342,5.0,13.0,85,0.00,,,0.00,LWC V1.00 B64,2013-02-21 03:18:00,
2013-02-20 19:23:00,47.5,43.2,30.05,North,355,5.0,9.0,85,0.00,,,0.00,LWC V1.00 B64,2013-02-21 03:23:00,
2013-02-20 19:28:00,47.4,43.4,30.04,NW,320,10.0,11.0,86,0.00,,,0.00,LWC V1.00 B64,2013-02-21 03:28:00,
2013-02-20 19:33:00,47.5,43.5,30.05,NW,315,10.0,15.0,86,0.00,,,0.00,LWC V1.00 B64,2013-02-21 03:33:00,
2013-02-20 19:38:00,47.4,43.4,30.05,NNW,346,7.0,11.0,86,0.00,,,0.00,LWC V1.00 B64,2013-02-21 03:38:00,
2013-02-20 19:43:00,47.5,43.2,30.05,NNE,17,4.0,9.0,85,0.00,,,0.00,LWC V1.00 B64,2013-02-21 03:43:00,
2013-02-20 19:48:00,47.5,43.2,30.05,North,351,7.0,9.0,85,0.00,,,0.00,LWC V1.00 B64,2013-02-21 03:48:00,
2013-02-20 19:53:00,47.4,43.1,30.06,North,355,4.0,7.0,85,0.00,,,0.00,LWC V1.00 B64,2013-02-21 03:53:00,
2013-02-20 19:58:00,47.4,43.1,30.05,North,355,4.0,5.0,85,0.00,,,0.00,LWC V1.00 B64,2013-02-21 03:58:00,
2013-02-20 20:03:00,47.3,43.0,30.06,NNE,14,3.0,7.0,85,0.00,,,0.00,LWC V1.00 B64,2013-02-21 04:03:00,
2013-02-20 20:08:00,47.2,42.9,30.05,NNW,327,7.0,10.0,85,0.00,,,0.00,LWC V1.00 B64,2013-02-21 04:08:00,
2013-02-20 20:14:00,47.3,43.0,30.06,North,0,5.0,7.0,85,0.00,,,0.00,LWC V1.00 B64,2013-02-21 04:14:00,
2013-02-20 20:19:00,47.3,43.0,30.06,North,355,6.0,7.0,85,0.00,,,0.00,LWC V1.00 B64,2013-02-21 04:19:00,
2013-02-20 20:25:00,47.2,42.9,30.06,North,350,1.0,6.0,85,0.00,,,0.00,LWC V1.00 B64,2013-02-21 04:25:00,
2013-02-20 20:30:00,47.1,43.1,30.06,NNE,15,0.0,4.0,86,0.00,,,0.00,LWC V1.00 B64,2013-02-21 04:30:00,
2013-02-20 20:35:00,47.0,42.7,30.06,NNE,23,2.0,5.0,85,0.00,,,0.00,LWC V1.00 B64,2013-02-21 04:35:00,
2013-02-20 20:40:00,46.9,42.6,30.06,North,0,1.0,1.0,85,0.00,,,0.00,LWC V1.00 B64,2013-02-21 04:40:00,
2013-02-20 20:45:00,46.7,42.4,30.06,NNE,12,1.0,4.0,85,0.00,,,0.00,LWC V1.00 B64,2013-02-21 04:45:00,
2013-02-20 20:50:00,46.7,42.7,30.06,North,0,3.0,6.0,86,0.00,,,0.00,LWC V1.00 B64,2013-02-21 04:50:00,
2013-02-20 20:56:00,46.7,42.4,30.06,North,5,2.0,3.0,85,0.00,,,0.00,LWC V1.00 B64,2013-02-21 04:56:00,
2013-02-20 21:00:00,46.7,42.4,30.06,North,0,3.0,5.0,85,0.00,,,0.00,LWC V1.00 B64,2013-02-21 05:00:00,
2013-02-20 21:01:00,46.7,42.4,30.06,North,0,1.0,5.0,85,0.00,,,0.00,LWC V1.00 B64,2013-02-21 05:01:00,
2013-02-20 21:04:00,46.7,42.4,30.07,North,355,3.0,10.0,85,0.00,,,0.00,LWC V1.00 B64,2013-02-21 05:04:00,
2013-02-20 21:09:00,46.9,42.6,30.07,North,355,3.0,6.0,85,0.00,,,0.00,LWC V1.00 B64,2013-02-21 05:09:00,
2013-02-20 21:14:00,46.9,42.6,30.07,North,350,4.0,6.0,85,0.00,,,0.00,LWC V1.00 B64,2013-02-21 05:14:00,
2013-02-20 21:19:00,46.8,42.8,30.07,North,355,4.0,10.0,86,0.00,,,0.00,LWC V1.00 B64,2013-02-21 05:19:00,
2013-02-20 21:24:00,46.8,42.8,30.08,NNE,15,9.0,9.0,86,0.00,,,0.00,LWC V1.00 B64,2013-02-21 05:24:00,
2013-02-20 21:29:00,46.9,42.9,30.08,North,355,9.0,9.0,86,0.00,,,0.00,LWC V1.00 B64,2013-02-21 05:29:00,
2013-02-20 21:34:00,46.9,42.9,30.07,North,355,4.0,12.0,86,0.00,,,0.00,LWC V1.00 B64,2013-02-21 05:34:00,
2013-02-20 21:39:00,46.9,42.9,30.08,NNW,346,4.0,13.0,86,0.00,,,0.00,LWC V1.00 B64,2013-02-21 05:39:00,
2013-02-20 21:44:00,46.9,42.9,30.08,North,9,6.0,10.0,86,0.00,,,0.00,LWC V1.00 B64,2013-02-21 05:44:00,
2013-02-20 21:45:00,46.9,42.9,30.08,NNW,342,9.0,11.0,86,0.00,,,0.00,LWC V1.00 B64,2013-02-21 05:45:00,
2013-02-20 21:51:00,47.0,42.7,30.08,North,5,5.0,12.0,85,0.00,,,0.00,LWC V1.00 B64,2013-02-21 05:51:00,
2013-02-20 21:56:00,47.0,42.7,30.08,NNW,337,6.0,10.0,85,0.00,,,0.00,LWC V1.00 B64,2013-02-21 05:56:00,
2013-02-20 22:02:00,46.8,42.5,30.08,NNW,338,6.0,10.0,85,0.00,,,0.00,LWC V1.00 B64,2013-02-21 06:02:00,
2013-02-20 22:07:00,46.8,42.5,30.08,NW,323,4.0,12.0,85,0.00,,,0.00,LWC V1.00 B64,2013-02-21 06:07:00,
2013-02-20 22:13:00,46.7,42.4,30.08,NNW,348,3.0,11.0,85,0.00,,,0.00,LWC V1.00 B64,2013-02-21 06:13:00,
2013-02-20 22:19:00,46.6,42.0,30.08,NNW,345,5.0,12.0,84,0.00,,,0.00,LWC V1.00 B64,2013-02-21 06:19:00,
2013-02-20 22:25:00,46.6,42.0,30.08,NNW,348,7.0,9.0,84,0.00,,,0.00,LWC V1.00 B64,2013-02-21 06:25:00,
2013-02-20 22:30:00,46.5,41.9,30.08,North,350,6.0,10.0,84,0.00,,,0.00,LWC V1.00 B64,2013-02-21 06:30:00,
2013-02-20 22:35:00,46.4,41.8,30.07,North,0,4.0,8.0,84,0.00,,,0.00,LWC V1.00 B64,2013-02-21 06:35:00,
2013-02-20 22:40:00,46.3,41.7,30.07,North,0,5.0,7.0,84,0.00,,,0.00,LWC V1.00 B64,2013-02-21 06:40:00,
2013-02-20 22:45:00,46.2,41.6,30.07,North,355,5.0,9.0,84,0.00,,,0.00,LWC V1.00 B64,2013-02-21 06:45:00,
2013-02-20 22:50:00,46.1,41.8,30.08,NNW,346,5.0,7.0,85,0.00,,,0.00,LWC V1.00 B64,2013-02-21 06:50:00,
2013-02-20 22:55:00,46.0,41.7,30.08,North,10,2.0,7.0,85,0.00,,,0.00,LWC V1.00 B64,2013-02-21 06:55:00,
2013-02-20 23:00:00,46.0,41.7,30.08,North,5,7.0,11.0,85,0.00,,,0.00,LWC V1.00 B64,2013-02-21 07:00:00,
2013-02-20 23:05:00,46.1,41.8,30.08,NNW,341,5.0,7.0,85,0.00,,,0.00,LWC V1.00 B64,2013-02-21 07:05:00,
2013-02-20 23:10:00,46.0,41.7,30.08,NNW,344,6.0,10.0,85,0.00,,,0.00,LWC V1.00 B64,2013-02-21 07:10:00,
2013-02-20 23:15:00,46.1,41.5,30.07,North,350,3.0,9.0,84,0.00,,,0.00,LWC V1.00 B64,2013-02-21 07:15:00,
2013-02-20 23:20:00,46.1,41.5,30.08,North,9,11.0,11.0,84,0.00,,,0.00,LWC V1.00 B64,2013-02-21 07:20:00,
2013-02-20 23:26:00,46.1,41.5,30.08,NNW,348,5.0,9.0,84,0.00,,,0.00,LWC V1.00 B64,2013-02-21 07:26:00,
2013-02-20 23:31:00,46.1,41.5,30.08,North,355,9.0,12.0,84,0.00,,,0.00,LWC V1.00 B64,2013-02-21 07:31:00,
2013-02-20 23:37:00,46.3,41.4,30.08,NNW,344,10.0,16.0,83,0.00,,,0.00,LWC V1.00 B64,2013-02-21 07:37:00,
2013-02-20 23:42:00,46.4,41.2,30.08,NNW,343,4.0,12.0,82,0.00,,,0.00,LWC V1.00 B64,2013-02-21 07:42:00,
2013-02-20 23:47:00,46.5,41.0,30.08,North,9,8.0,11.0,81,0.00,,,0.00,LWC V1.00 B64,2013-02-21 07:47:00,
2013-02-20 23:52:00,46.5,41.0,30.08,NNW,345,6.0,11.0,81,0.00,,,0.00,LWC V1.00 B64,2013-02-21 07:52:00,
2013-02-20 23:57:00,46.5,41.0,30.08,North,0,10.0,12.0,81,0.00,,,0.00,LWC V1.00 B64,2013-02-21 07:57:00,